Paris - Charles De Gaulle, France

9:14 PM CEST on September 28, 2016 (GMT +0200)
Charles de Gaulle

Weather History for LFPG - December, 2011

Change the Weather History Date:

Sunday, December 11, 2011

  Actual Average Record
Temperature  
Mean Temperature 40 °F -  
Max Temperature 48 °F 43 °F 59 °F (1997)
Min Temperature 33 °F 35 °F 26 °F (2005)
Degree Days  
Heating Degree Days 24    
Moisture  
Dew Point 38 °F    
Average Humidity 94    
Maximum Humidity 100    
Minimum Humidity 87    
Precipitation  
Precipitation 0.00 in - - ()
Sea Level Pressure  
Sea Level Pressure 29.92 in    
Wind  
Wind Speed 6 mph ()    
Max Wind Speed 14 mph    
Max Gust Speed 25 mph    
Visibility 4.6 miles    
Events Fog , Rain    
Averages and records for this station are not official NWS values.
T = Trace of Precipitation, MM = Missing Value Source: Averaged Metar Reports

Daily Weather History Graph

Daily Weather History Graph

Search for Another Location

Airport or City:

Trip Planner

Search our weather history database for the weather conditions in past years. The results will help you decide how hot, cold, wet, or windy it might be!

Date:

Astronomy

Dec. 11, 2011 Rise Set
Actual Time 8:33 AM CET 4:52 PM CET
Civil Twilight 7:56 AM CET 5:29 PM CET
Nautical Twilight 7:15 AM CET 6:09 PM CET
Astronomical Twilight 6:37 AM CET 6:48 PM CET
Moon 5:47 PM CET (12/11) 9:10 AM CET (12/11)
Length of Visible Light 9h 33m
Length of Day
8h 18m
Full, 99% of the Moon is Illuminated
Dec 11
Full
Dec 18
Last Quarter
Dec 24
New
Jan 1
First Quarter
Jan 9
Full

Hourly Weather History & Observations

Time (CET) Temp. Windchill Dew Point Humidity Pressure Visibility Wind Dir Wind Speed Gust Speed Precip Events Conditions
12:00 AM 39.2 °F 35.0 °F 35.6 °F 87% 30.06 in - SSW 5.8 mph - N/A   Clear
12:30 AM 37.4 °F 34.9 °F 35.6 °F 93% 30.06 in - South 3.5 mph - N/A   Clear
1:00 AM 37.4 °F 33.8 °F 37.4 °F 100% 30.06 in - South 4.6 mph - N/A   Clear
1:30 AM 37.4 °F 33.8 °F 35.6 °F 93% 30.06 in 4.3 mi South 4.6 mph - N/A   Unknown
2:00 AM 37.4 °F 34.9 °F 35.6 °F 93% 30.06 in 3.7 mi South 3.5 mph - N/A Fog Fog
2:30 AM 37.4 °F - 35.6 °F 93% 30.06 in 3.7 mi Variable 2.3 mph - N/A Fog Fog
3:00 AM 37.4 °F 34.9 °F 35.6 °F 93% 30.06 in 3.7 mi SSE 3.5 mph - N/A Fog Fog
3:30 AM 35.6 °F 32.8 °F 35.6 °F 100% 30.06 in 3.7 mi SSE 3.5 mph - N/A Fog Fog
4:00 AM 35.6 °F - 35.6 °F 100% 30.04 in 4.3 mi Variable 2.3 mph - N/A   Mostly Cloudy
4:30 AM 35.6 °F 30.7 °F 33.8 °F 93% 30.04 in 5.0 mi SSE 5.8 mph - N/A   Mostly Cloudy
5:00 AM 35.6 °F 30.7 °F 33.8 °F 93% 30.04 in 5.6 mi South 5.8 mph - N/A   Mostly Cloudy
5:30 AM 35.6 °F 30.7 °F 33.8 °F 93% 30.04 in 5.6 mi South 5.8 mph - N/A   Partly Cloudy
6:00 AM 35.6 °F 32.8 °F 33.8 °F 93% 30.04 in 5.6 mi SSE 3.5 mph - N/A   Partly Cloudy
6:30 AM 33.8 °F - 30.2 °F 87% 30.04 in 4.3 mi Variable 2.3 mph - N/A   Partly Cloudy
7:00 AM 33.8 °F 30.8 °F 32.0 °F 93% 30.01 in 5.0 mi SE 3.5 mph - N/A   Unknown
7:30 AM 33.8 °F 30.8 °F 33.8 °F 100% 30.01 in 5.6 mi SE 3.5 mph - N/A Fog Fog
8:00 AM 35.6 °F 30.7 °F 33.8 °F 93% 30.01 in 5.6 mi ESE 5.8 mph - N/A Fog Shallow Fog
8:30 AM 35.6 °F 32.8 °F 33.8 °F 93% 30.01 in 2.2 mi SE 3.5 mph - N/A Fog Mostly Cloudy
9:00 AM 35.6 °F - 33.8 °F 93% 30.01 in 3.1 mi Calm Calm - N/A   Mostly Cloudy
9:30 AM 35.6 °F 32.8 °F 35.6 °F 100% 30.01 in 4.3 mi East 3.5 mph - N/A   Unknown
10:00 AM 39.2 °F 37.0 °F 35.6 °F 87% 30.01 in 5.0 mi East 3.5 mph - N/A   Unknown
10:30 AM 39.2 °F 33.6 °F 35.6 °F 87% 30.01 in - SSE 8.1 mph - N/A   Clear
11:00 AM 39.2 °F 32.5 °F 35.6 °F 87% 29.98 in 6.2 mi SE 10.4 mph - N/A   Mostly Cloudy
11:30 AM 39.2 °F 34.2 °F 35.6 °F 87% 29.98 in 6.2 mi SSE 6.9 mph - N/A   Mostly Cloudy
12:00 PM 39.2 °F 32.5 °F 35.6 °F 87% 29.95 in 6.2 mi SE 10.4 mph - N/A   Mostly Cloudy
12:30 PM 41.0 °F 35.8 °F 37.4 °F 87% 29.95 in 6.2 mi South 8.1 mph - N/A   Mostly Cloudy
1:00 PM 41.0 °F 36.4 °F 37.4 °F 87% 29.92 in 6.2 mi SSE 6.9 mph - N/A   Mostly Cloudy
1:30 PM 41.0 °F 37.1 °F 37.4 °F 87% 29.89 in 6.2 mi SSE 5.8 mph - N/A   Overcast
2:00 PM 41.0 °F 38.0 °F 39.2 °F 93% 29.89 in 6.2 mi SE 4.6 mph - N/A   Overcast
2:30 PM 42.8 °F 37.5 °F 39.2 °F 87% 29.86 in 5.0 mi ESE 9.2 mph - N/A   Overcast
3:00 PM 41.0 °F 36.4 °F 41.0 °F 100% 29.86 in 2.2 mi SSE 6.9 mph - N/A   Light Drizzle
3:30 PM 42.8 °F 38.0 °F 41.0 °F 93% 29.86 in 1.2 mi South 8.1 mph - N/A   Light Drizzle
4:00 PM 42.8 °F 36.6 °F 41.0 °F 93% 29.83 in 1.2 mi South 11.5 mph - N/A   Light Drizzle
4:30 PM 42.8 °F 37.0 °F 41.0 °F 93% 29.83 in 2.2 mi South 10.4 mph - N/A   Light Drizzle
5:00 PM 42.8 °F 35.8 °F 41.0 °F 93% 29.83 in 2.8 mi South 13.8 mph - N/A   Overcast
5:30 PM 42.8 °F 36.6 °F 42.8 °F 100% 29.83 in 3.7 mi SSW 11.5 mph - N/A   Mostly Cloudy
6:00 PM 42.8 °F 39.3 °F 41.0 °F 93% 29.80 in 5.6 mi South 5.8 mph - N/A   Mostly Cloudy
6:30 PM 42.8 °F 38.6 °F 42.8 °F 100% 29.80 in 5.6 mi South 6.9 mph - N/A   Mostly Cloudy
7:00 PM 42.8 °F 37.5 °F 42.8 °F 100% 29.80 in 5.6 mi South 9.2 mph - N/A   Overcast
7:30 PM 44.6 °F 39.7 °F 42.8 °F 93% 29.80 in 6.2 mi South 9.2 mph - N/A   Overcast
8:00 PM 44.6 °F 39.2 °F 42.8 °F 93% 29.77 in 6.2 mi South 10.4 mph - N/A Rain Light Rain
8:06 PM 44.6 °F 39.2 °F 42.8 °F 93% 29.77 in 6.2 mi South 10.4 mph - N/A Rain Light Rain
8:30 PM 44.6 °F 39.7 °F 44.6 °F 100% 29.77 in 5.0 mi South 9.2 mph - N/A Rain Light Rain
9:00 PM 44.6 °F 39.2 °F 44.6 °F 100% 29.74 in 5.6 mi South 10.4 mph - N/A   Mostly Cloudy
9:30 PM 46.4 °F 41.1 °F 44.6 °F 93% 29.74 in 3.7 mi South 11.5 mph - N/A Rain Light Rain
10:00 PM 46.4 °F 41.1 °F 46.4 °F 100% 29.71 in 2.5 mi South 11.5 mph 25.3 mph N/A Rain Light Rain
10:30 PM 48.2 °F - 46.4 °F 93% 29.71 in 2.5 mi South 13.8 mph - N/A   Mostly Cloudy
11:00 PM 48.2 °F - 46.4 °F 93% 29.71 in 4.3 mi South 13.8 mph - N/A Rain Light Rain
11:30 PM 48.2 °F - 48.2 °F 100% 29.68 in 4.3 mi SSW 13.8 mph - N/A Rain Light Rain